GEFSSE_prec_meanprecacc_318.txt.gz
Total_Precipitation_Accumulation
2.57 2.71 3.22 3.03 2.53 2.41 2.52 2.53 2.64 2.55 2.56 2.65 2.63 2.51 2.37 2.31 2.19 2.19 2.18 2.14 2.11 2.18 2.33 2.42 2.38 2.34 2.31 2.18 2.11 2.21 2.27 2.16 2.40 2.42 2.52 2.56 2.52 2.58 2.68 2.72 2.76 1.93 1.71
2.08 2.08 2.57 2.58 2.37 2.42 2.43 2.51 2.59 2.44 2.40 2.47 2.51 2.42 2.27 2.16 2.17 2.14 2.10 2.11 2.13 2.22 2.39 2.40 2.19 2.09 1.96 1.81 1.80 2.00 2.15 2.24 2.49 2.65 2.84 2.86 2.86 2.86 2.91 2.89 2.84 1.83 1.71
1.66 1.64 1.87 2.14 2.07 2.20 2.24 2.20 2.22 2.14 2.14 2.23 2.30 2.36 2.37 2.28 2.25 2.17 2.08 2.14 2.16 2.14 2.25 2.22 2.00 1.86 1.70 1.58 1.62 1.90 2.12 2.43 2.88 3.10 3.46 3.04 2.59 3.00 2.96 2.87 2.52 1.78 1.69
1.32 1.43 1.53 1.94 1.98 1.87 1.78 1.85 2.00 1.94 1.90 1.95 2.12 2.35 2.49 2.52 2.40 2.32 2.23 2.21 2.15 2.09 2.25 2.12 1.88 1.65 1.48 1.45 1.59 1.80 2.07 2.45 2.97 3.49 3.78 2.89 2.11 2.45 2.47 2.32 2.22 1.84 1.67
1.07 1.27 1.56 1.76 1.77 1.65 1.56 1.65 1.81 1.73 1.75 1.82 1.91 2.16 2.34 2.48 2.58 2.54 2.35 2.17 2.04 2.06 2.15 2.00 1.76 1.50 1.32 1.32 1.52 1.73 1.96 2.48 3.08 3.30 2.89 2.76 2.52 2.35 2.14 2.06 2.09 1.85 1.58
0.97 1.15 1.43 1.62 1.55 1.42 1.39 1.52 1.64 1.64 1.69 1.72 1.73 1.97 2.14 2.20 2.25 2.30 2.26 2.03 1.89 1.92 1.93 2.06 1.75 1.50 1.36 1.39 1.56 1.72 1.95 2.46 2.83 2.48 2.18 2.33 2.12 2.16 2.11 2.18 2.22 2.04 1.68
0.98 1.17 1.32 1.50 1.46 1.43 1.47 1.46 1.49 1.62 1.62 1.57 1.63 1.82 2.03 2.05 2.19 2.18 2.01 1.75 1.66 1.81 1.86 1.94 1.79 1.56 1.40 1.42 1.49 1.63 1.96 2.33 2.22 1.98 2.05 2.29 1.85 1.75 2.05 2.33 2.56 2.36 1.95
0.87 1.04 1.18 1.38 1.41 1.43 1.44 1.41 1.43 1.43 1.42 1.48 1.59 1.74 1.78 1.85 2.00 1.95 1.85 1.71 1.55 1.70 1.74 1.67 1.79 1.62 1.47 1.38 1.39 1.44 1.70 1.94 1.69 1.63 1.86 2.01 1.58 1.72 2.15 2.49 2.82 2.66 2.28
0.85 0.96 1.18 1.35 1.40 1.40 1.41 1.37 1.43 1.49 1.41 1.42 1.51 1.66 1.75 1.74 1.70 1.64 1.70 1.72 1.55 1.55 1.53 1.50 1.67 1.74 1.57 1.41 1.34 1.41 1.62 1.95 1.78 1.69 1.59 1.67 1.57 1.82 2.31 2.55 2.73 2.65 2.40
1.25 1.20 1.16 1.18 1.27 1.31 1.27 1.40 1.52 1.55 1.46 1.41 1.50 1.67 1.82 1.71 1.62 1.54 1.46 1.59 1.59 1.50 1.44 1.42 1.57 1.69 1.50 1.47 1.46 1.61 1.80 1.89 1.80 1.77 1.70 1.49 1.59 1.95 2.35 2.48 2.67 2.58 2.38
1.84 1.83 1.53 1.32 1.29 1.37 1.26 1.31 1.64 1.75 1.65 1.71 1.85 1.95 2.09 2.09 1.87 1.85 1.77 1.87 1.79 1.71 1.68 1.69 1.70 1.85 1.64 1.45 1.57 1.79 1.77 1.80 2.15 2.19 1.70 1.43 1.74 2.27 2.54 2.62 2.63 2.47 2.37
2.31 2.31 1.97 1.71 1.44 1.29 1.14 1.39 1.78 1.76 1.87 2.04 2.18 2.09 2.35 2.56 2.42 1.94 2.19 2.52 2.44 2.39 2.24 2.21 2.14 1.95 1.87 1.71 2.10 2.38 1.90 2.11 2.46 2.32 1.84 1.78 2.26 2.78 3.14 3.08 2.73 2.40 2.25
2.66 2.51 2.12 1.91 1.70 1.42 1.49 1.47 1.70 2.02 2.28 2.19 2.02 2.05 2.46 2.37 2.15 2.14 2.35 2.55 2.73 2.58 2.43 2.49 2.56 2.32 2.45 2.81 2.96 2.74 2.25 2.35 2.46 2.39 2.13 2.19 2.75 3.47 3.83 3.65 3.13 2.69 2.41
2.80 2.53 2.23 2.00 1.79 1.67 1.62 1.61 1.74 1.87 2.10 2.16 2.27 2.19 2.40 2.78 2.70 2.65 2.83 2.82 2.90 3.00 3.32 3.14 3.26 3.06 2.94 2.93 3.05 2.83 2.63 2.69 2.70 2.99 3.09 2.93 3.19 3.66 4.17 4.07 3.55 3.10 2.87
2.94 2.79 2.53 2.16 2.11 2.04 2.16 2.25 1.96 2.01 2.12 2.37 2.67 2.63 2.60 2.93 2.93 2.96 3.03 3.13 2.94 2.99 3.20 3.50 3.38 3.46 3.50 3.21 2.88 2.75 2.91 2.97 3.06 3.13 3.22 3.38 3.26 3.38 4.05 4.29 3.94 3.51 3.32
3.41 3.43 3.17 2.75 2.71 2.70 2.59 2.60 2.53 2.30 2.47 2.58 2.76 2.71 2.79 3.04 3.20 3.16 2.99 3.08 2.94 2.91 3.06 3.33 3.38 3.82 3.82 3.69 3.18 2.94 3.02 3.09 3.13 3.20 3.17 3.48 3.37 3.20 3.63 4.04 4.16 3.99 3.77
3.58 3.79 3.74 3.53 3.54 3.50 3.28 3.03 2.81 2.72 2.68 2.94 3.06 2.95 2.99 3.03 3.22 3.19 3.12 2.97 2.94 3.03 3.28 3.38 3.44 3.79 3.79 3.72 3.54 3.26 3.13 2.90 2.80 2.91 2.93 3.07 3.00 2.99 3.26 3.62 3.92 4.06 4.11
3.79 4.01 4.23 4.13 4.16 4.03 3.90 3.64 3.30 3.15 3.17 3.12 3.04 3.08 2.98 3.06 3.12 3.31 3.15 2.88 2.97 2.99 3.27 3.66 3.78 4.00 4.13 4.08 3.79 3.43 3.20 3.07 2.86 2.86 2.69 2.65 2.91 2.58 2.89 3.31 3.56 3.78 4.30
4.12 4.52 4.91 4.97 4.90 4.59 4.25 4.07 3.94 3.76 3.56 3.30 3.23 3.17 3.02 2.97 2.95 3.22 3.14 3.06 3.08 3.34 3.42 3.25 3.87 4.18 4.32 4.24 3.50 3.32 2.95 2.83 2.71 2.54 2.60 2.47 2.66 2.72 2.80 2.80 2.95 3.23 4.13
4.60 5.23 5.34 5.35 5.61 5.36 5.02 4.82 4.62 4.19 3.83 3.53 3.40 3.25 2.98 2.92 2.86 3.19 2.98 2.98 3.12 3.49 3.65 3.76 4.23 4.26 4.11 4.25 3.46 3.07 2.66 2.32 2.28 2.31 2.17 2.20 2.28 2.23 2.50 2.92 3.27 3.01 3.53
4.42 5.05 5.71 5.90 5.77 5.55 5.26 4.82 4.45 4.03 3.79 3.52 3.22 3.00 2.92 2.89 3.01 3.48 3.14 3.45 3.36 3.45 3.53 3.69 4.00 4.00 3.77 4.05 4.02 3.31 2.46 1.96 1.97 1.86 1.87 1.98 1.93 1.95 2.28 2.84 3.20 3.27 3.09
3.84 4.30 4.78 5.10 4.79 4.44 4.26 4.18 4.05 3.96 3.54 3.39 3.32 3.38 3.07 3.09 3.10 3.17 3.43 3.34 3.39 3.53 3.33 3.42 3.79 3.65 3.21 3.61 3.99 3.99 3.12 2.52 2.00 1.49 1.64 1.72 1.83 2.02 2.06 2.14 2.61 3.14 3.08
3.31 3.45 3.62 3.84 3.91 3.92 3.97 4.05 4.18 4.33 4.01 3.87 3.80 3.72 3.24 3.14 3.14 3.22 3.16 3.11 3.28 3.23 3.20 3.20 3.40 3.53 3.36 3.35 3.74 4.10 3.48 2.80 2.21 1.67 1.57 1.53 1.84 2.18 2.15 2.15 2.39 2.81 2.99
2.65 2.89 3.39 3.61 3.70 3.89 4.14 4.15 4.19 4.16 4.09 4.07 4.16 4.09 3.90 3.62 3.39 3.15 2.98 2.95 2.97 2.87 2.98 2.74 3.03 3.26 3.44 3.17 3.28 3.28 3.16 3.07 2.90 2.23 1.74 1.59 1.84 2.07 2.18 2.17 2.30 2.61 2.87
2.22 2.54 3.14 3.70 3.91 4.05 4.24 4.34 4.59 4.41 4.26 4.12 4.17 4.24 4.01 3.74 3.41 3.02 2.99 3.00 2.95 2.83 2.70 2.63 2.88 2.84 2.96 3.00 3.04 3.03 3.07 3.04 2.83 2.60 2.21 2.01 1.89 1.64 1.67 1.85 2.11 2.45 2.70
2.34 2.65 3.09 3.57 3.89 4.04 4.13 4.15 4.24 4.25 4.25 4.02 3.90 3.61 3.20 3.08 2.98 2.74 2.70 2.74 2.67 2.69 2.70 2.65 2.67 2.64 2.72 2.83 2.85 2.84 2.96 2.95 2.90 2.93 2.61 2.34 2.10 1.76 1.65 1.72 1.91 2.16 2.37

GEFSSE_prec_meanprecacc_324.txt.gz
Total_Precipitation_Accumulation
2.63 2.80 3.39 3.25 2.69 2.57 2.68 2.67 2.74 2.65 2.67 2.76 2.74 2.62 2.49 2.43 2.30 2.31 2.28 2.24 2.23 2.32 2.47 2.52 2.46 2.41 2.37 2.26 2.23 2.35 2.38 2.27 2.54 2.62 2.68 2.65 2.60 2.65 2.74 2.79 2.86 2.01 1.78
2.14 2.18 2.70 2.74 2.50 2.56 2.55 2.62 2.69 2.54 2.50 2.57 2.63 2.54 2.41 2.29 2.30 2.27 2.21 2.21 2.25 2.35 2.52 2.50 2.28 2.17 2.03 1.91 1.95 2.18 2.31 2.37 2.64 2.83 2.98 2.97 2.95 2.94 2.98 2.97 2.94 1.92 1.80
1.72 1.72 1.99 2.28 2.19 2.30 2.33 2.28 2.31 2.23 2.24 2.32 2.42 2.48 2.49 2.39 2.35 2.27 2.16 2.21 2.26 2.26 2.37 2.29 2.07 1.95 1.80 1.67 1.73 2.09 2.33 2.59 3.05 3.24 3.56 3.13 2.68 3.08 3.04 2.95 2.62 1.88 1.78
1.42 1.53 1.64 2.05 2.08 1.95 1.87 1.93 2.10 2.04 2.02 2.09 2.26 2.48 2.61 2.63 2.50 2.40 2.30 2.28 2.23 2.22 2.38 2.19 1.95 1.72 1.58 1.55 1.68 1.95 2.28 2.65 3.11 3.59 3.85 2.96 2.19 2.53 2.56 2.44 2.33 1.95 1.76
1.17 1.36 1.65 1.84 1.85 1.73 1.66 1.75 1.93 1.85 1.88 1.96 2.03 2.26 2.43 2.59 2.70 2.64 2.42 2.26 2.15 2.20 2.25 2.10 1.85 1.59 1.41 1.42 1.61 1.83 2.08 2.59 3.18 3.37 2.96 2.84 2.60 2.45 2.24 2.18 2.21 1.98 1.70
1.03 1.22 1.51 1.69 1.61 1.48 1.47 1.62 1.78 1.79 1.83 1.85 1.84 2.06 2.23 2.31 2.37 2.41 2.35 2.13 2.01 2.03 2.03 2.17 1.84 1.60 1.46 1.47 1.63 1.80 2.03 2.53 2.90 2.54 2.25 2.40 2.20 2.25 2.19 2.27 2.33 2.16 1.80
1.04 1.24 1.39 1.56 1.51 1.47 1.52 1.54 1.62 1.77 1.76 1.71 1.78 2.01 2.16 2.19 2.33 2.30 2.13 1.88 1.78 1.93 1.96 2.02 1.86 1.63 1.49 1.50 1.55 1.68 2.02 2.40 2.28 2.04 2.13 2.36 1.92 1.81 2.13 2.43 2.68 2.50 2.08
0.92 1.11 1.25 1.43 1.47 1.48 1.48 1.46 1.51 1.52 1.53 1.60 1.75 1.95 1.95 1.98 2.13 2.08 1.96 1.81 1.66 1.80 1.81 1.72 1.84 1.66 1.56 1.48 1.45 1.48 1.74 1.99 1.74 1.70 1.94 2.09 1.66 1.80 2.24 2.58 2.93 2.81 2.41
0.91 1.02 1.23 1.41 1.47 1.46 1.45 1.41 1.50 1.57 1.49 1.51 1.65 1.79 1.89 1.87 1.83 1.77 1.80 1.80 1.64 1.62 1.58 1.54 1.70 1.77 1.63 1.51 1.40 1.46 1.66 1.99 1.84 1.77 1.66 1.76 1.65 1.91 2.40 2.64 2.81 2.75 2.52
1.30 1.24 1.19 1.23 1.34 1.38 1.32 1.46 1.60 1.63 1.52 1.49 1.60 1.77 1.92 1.82 1.73 1.64 1.54 1.68 1.68 1.57 1.49 1.45 1.59 1.72 1.54 1.53 1.53 1.65 1.83 1.92 1.83 1.83 1.78 1.57 1.68 2.04 2.45 2.57 2.75 2.65 2.45
1.88 1.86 1.56 1.35 1.33 1.42 1.31 1.35 1.69 1.81 1.70 1.78 1.94 2.02 2.17 2.17 1.96 1.96 1.86 1.97 1.87 1.78 1.74 1.74 1.73 1.88 1.67 1.50 1.62 1.82 1.80 1.83 2.19 2.25 1.78 1.50 1.81 2.36 2.63 2.70 2.69 2.54 2.43
2.33 2.34 1.99 1.73 1.48 1.33 1.16 1.42 1.82 1.80 1.94 2.10 2.25 2.14 2.42 2.64 2.51 2.03 2.27 2.59 2.51 2.45 2.29 2.27 2.18 1.98 1.90 1.76 2.13 2.42 1.95 2.15 2.50 2.37 1.90 1.84 2.32 2.85 3.22 3.16 2.80 2.46 2.32
2.67 2.52 2.14 1.93 1.72 1.45 1.52 1.49 1.74 2.07 2.34 2.24 2.08 2.10 2.52 2.45 2.26 2.22 2.41 2.62 2.80 2.64 2.49 2.54 2.60 2.33 2.47 2.86 3.00 2.77 2.29 2.40 2.51 2.43 2.18 2.23 2.80 3.53 3.91 3.72 3.19 2.75 2.47
2.82 2.55 2.25 2.01 1.81 1.70 1.65 1.64 1.77 1.91 2.14 2.21 2.31 2.23 2.45 2.85 2.78 2.71 2.87 2.86 2.96 3.06 3.38 3.20 3.31 3.08 2.98 2.96 3.07 2.85 2.65 2.74 2.75 3.03 3.14 2.97 3.24 3.73 4.25 4.15 3.61 3.16 2.92
2.95 2.81 2.54 2.17 2.13 2.07 2.20 2.28 1.99 2.05 2.16 2.41 2.71 2.67 2.64 2.98 2.97 3.00 3.07 3.17 2.99 3.05 3.26 3.56 3.42 3.50 3.54 3.25 2.90 2.77 2.92 2.98 3.08 3.15 3.25 3.42 3.31 3.45 4.13 4.36 4.00 3.58 3.38
3.43 3.45 3.18 2.77 2.72 2.71 2.61 2.64 2.58 2.34 2.53 2.63 2.80 2.75 2.84 3.09 3.25 3.20 3.02 3.13 3.01 2.99 3.13 3.40 3.43 3.86 3.86 3.74 3.21 2.97 3.05 3.11 3.14 3.22 3.20 3.51 3.42 3.24 3.69 4.11 4.24 4.09 3.87
3.61 3.80 3.75 3.54 3.56 3.52 3.29 3.04 2.84 2.74 2.72 3.00 3.10 3.00 3.04 3.08 3.27 3.23 3.16 3.04 3.02 3.11 3.37 3.46 3.49 3.82 3.82 3.75 3.57 3.29 3.16 2.92 2.81 2.93 2.95 3.11 3.04 3.02 3.30 3.67 4.01 4.16 4.21
3.80 4.03 4.24 4.14 4.17 4.05 3.92 3.68 3.33 3.19 3.20 3.16 3.07 3.12 3.01 3.09 3.16 3.36 3.22 2.97 3.06 3.06 3.34 3.74 3.84 4.04 4.16 4.12 3.82 3.45 3.23 3.09 2.88 2.88 2.71 2.67 2.93 2.60 2.92 3.34 3.60 3.84 4.37
4.14 4.54 4.93 4.98 4.91 4.60 4.27 4.10 3.97 3.81 3.61 3.34 3.27 3.21 3.04 2.99 2.97 3.26 3.22 3.17 3.18 3.41 3.49 3.29 3.91 4.22 4.36 4.28 3.53 3.35 2.97 2.86 2.75 2.57 2.61 2.49 2.68 2.75 2.83 2.83 2.97 3.26 4.17
4.63 5.25 5.36 5.36 5.62 5.38 5.04 4.86 4.65 4.24 3.88 3.58 3.44 3.30 3.01 2.95 2.89 3.24 3.04 3.06 3.19 3.56 3.72 3.82 4.29 4.30 4.15 4.28 3.48 3.09 2.68 2.35 2.30 2.34 2.19 2.22 2.30 2.25 2.51 2.95 3.30 3.04 3.55
4.45 5.08 5.74 5.93 5.79 5.58 5.30 4.85 4.50 4.08 3.85 3.57 3.26 3.04 2.96 2.93 3.06 3.55 3.20 3.51 3.43 3.53 3.60 3.75 4.06 4.05 3.82 4.09 4.06 3.35 2.50 1.99 1.99 1.89 1.89 2.00 1.95 1.96 2.30 2.87 3.22 3.29 3.12
3.85 4.32 4.80 5.14 4.83 4.46 4.28 4.21 4.08 3.99 3.58 3.43 3.35 3.43 3.11 3.13 3.16 3.22 3.49 3.41 3.47 3.62 3.42 3.50 3.85 3.71 3.28 3.68 4.06 4.05 3.17 2.56 2.03 1.50 1.66 1.74 1.85 2.04 2.08 2.16 2.62 3.17 3.12
3.31 3.46 3.63 3.86 3.93 3.93 3.99 4.06 4.20 4.37 4.04 3.91 3.85 3.77 3.30 3.19 3.18 3.27 3.22 3.19 3.36 3.31 3.30 3.30 3.47 3.60 3.44 3.43 3.79 4.15 3.54 2.86 2.24 1.69 1.58 1.55 1.86 2.20 2.16 2.16 2.40 2.83 3.01
2.65 2.89 3.39 3.62 3.71 3.90 4.15 4.17 4.21 4.19 4.13 4.12 4.21 4.13 3.94 3.65 3.42 3.19 3.03 3.01 3.04 2.94 3.06 2.82 3.10 3.33 3.52 3.26 3.35 3.31 3.18 3.11 2.95 2.26 1.76 1.60 1.85 2.07 2.18 2.17 2.30 2.62 2.88
2.22 2.55 3.15 3.70 3.91 4.06 4.26 4.37 4.62 4.44 4.30 4.16 4.21 4.29 4.06 3.77 3.44 3.05 3.03 3.03 3.00 2.88 2.77 2.69 2.94 2.90 3.03 3.09 3.11 3.08 3.12 3.08 2.87 2.64 2.24 2.03 1.91 1.66 1.68 1.85 2.12 2.45 2.70
2.34 2.66 3.10 3.57 3.89 4.05 4.14 4.17 4.27 4.29 4.29 4.06 3.95 3.66 3.23 3.10 3.00 2.76 2.73 2.79 2.72 2.73 2.76 2.70 2.74 2.71 2.80 2.90 2.90 2.88 3.01 2.98 2.93 2.97 2.65 2.38 2.13 1.78 1.66 1.72 1.92 2.17 2.38

GEFSSE_prec_meanprecacc_330.txt.gz
Total_Precipitation_Accumulation
2.82 2.91 3.50 3.41 2.85 2.74 2.81 2.77 2.84 2.74 2.77 2.87 2.84 2.72 2.59 2.52 2.37 2.39 2.38 2.38 2.36 2.44 2.56 2.60 2.53 2.49 2.44 2.31 2.28 2.44 2.49 2.36 2.62 2.68 2.73 2.71 2.64 2.68 2.79 2.86 2.94 2.10 1.84
2.28 2.26 2.78 2.86 2.67 2.73 2.68 2.72 2.79 2.63 2.60 2.70 2.76 2.65 2.52 2.39 2.38 2.35 2.32 2.38 2.43 2.46 2.61 2.60 2.36 2.24 2.09 1.97 2.04 2.31 2.42 2.45 2.71 2.89 3.04 3.04 3.00 2.98 3.02 3.02 3.02 2.00 1.86
1.84 1.83 2.09 2.38 2.31 2.43 2.45 2.37 2.41 2.33 2.35 2.47 2.56 2.61 2.62 2.49 2.44 2.37 2.27 2.39 2.46 2.39 2.50 2.39 2.16 2.01 1.85 1.73 1.84 2.25 2.42 2.65 3.12 3.33 3.67 3.24 2.78 3.16 3.10 3.01 2.68 1.96 1.85
1.55 1.64 1.72 2.12 2.15 2.04 1.97 2.03 2.22 2.16 2.11 2.20 2.40 2.61 2.73 2.74 2.61 2.52 2.42 2.44 2.40 2.35 2.50 2.32 2.06 1.80 1.65 1.63 1.80 2.09 2.35 2.71 3.20 3.72 3.98 3.08 2.31 2.64 2.67 2.52 2.42 2.04 1.84
1.30 1.46 1.71 1.89 1.89 1.78 1.72 1.81 2.01 1.93 1.96 2.04 2.13 2.37 2.57 2.71 2.82 2.77 2.55 2.38 2.30 2.33 2.35 2.20 1.94 1.68 1.50 1.52 1.73 1.97 2.20 2.71 3.31 3.50 3.09 2.95 2.70 2.56 2.33 2.25 2.28 2.05 1.78
1.16 1.32 1.55 1.71 1.63 1.52 1.53 1.68 1.84 1.86 1.90 1.91 1.91 2.16 2.34 2.41 2.49 2.55 2.49 2.27 2.19 2.15 2.13 2.23 1.90 1.66 1.55 1.58 1.73 1.90 2.14 2.65 3.00 2.64 2.35 2.49 2.26 2.31 2.25 2.31 2.37 2.21 1.86
1.14 1.32 1.43 1.58 1.54 1.50 1.56 1.58 1.68 1.85 1.84 1.78 1.86 2.10 2.26 2.30 2.44 2.42 2.28 2.03 1.88 2.00 2.02 2.09 1.91 1.67 1.56 1.60 1.62 1.73 2.06 2.44 2.35 2.10 2.19 2.42 1.95 1.84 2.16 2.47 2.72 2.54 2.12
0.98 1.19 1.32 1.45 1.49 1.50 1.50 1.49 1.55 1.58 1.60 1.68 1.83 2.03 2.05 2.08 2.21 2.18 2.10 1.95 1.73 1.86 1.86 1.78 1.88 1.69 1.61 1.56 1.50 1.52 1.77 2.03 1.81 1.74 1.99 2.14 1.69 1.83 2.27 2.63 2.98 2.86 2.46
0.95 1.06 1.30 1.46 1.49 1.48 1.47 1.44 1.54 1.60 1.54 1.56 1.70 1.87 2.00 1.96 1.91 1.86 1.91 1.89 1.72 1.69 1.61 1.57 1.72 1.79 1.66 1.54 1.43 1.49 1.70 2.04 1.91 1.84 1.71 1.81 1.69 1.95 2.45 2.69 2.88 2.81 2.58
1.34 1.27 1.23 1.27 1.38 1.42 1.35 1.48 1.62 1.66 1.57 1.55 1.67 1.84 2.01 1.92 1.83 1.74 1.61 1.74 1.74 1.63 1.53 1.48 1.61 1.74 1.55 1.55 1.55 1.67 1.86 1.98 1.91 1.91 1.85 1.65 1.74 2.11 2.52 2.65 2.83 2.71 2.52
1.91 1.89 1.59 1.38 1.38 1.48 1.34 1.36 1.72 1.86 1.76 1.87 2.04 2.11 2.28 2.29 2.08 2.05 1.93 2.03 1.92 1.85 1.80 1.77 1.74 1.89 1.68 1.51 1.64 1.85 1.85 1.88 2.27 2.34 1.86 1.58 1.88 2.43 2.70 2.77 2.75 2.60 2.49
2.36 2.37 2.02 1.75 1.52 1.37 1.18 1.45 1.86 1.85 2.01 2.20 2.36 2.26 2.58 2.78 2.62 2.09 2.34 2.65 2.57 2.50 2.34 2.29 2.19 1.99 1.93 1.79 2.16 2.44 1.99 2.19 2.56 2.44 1.97 1.90 2.38 2.91 3.27 3.21 2.85 2.51 2.37
2.71 2.56 2.17 1.95 1.76 1.48 1.55 1.52 1.78 2.12 2.40 2.32 2.15 2.19 2.64 2.56 2.35 2.32 2.50 2.69 2.87 2.69 2.56 2.59 2.64 2.38 2.53 2.92 3.05 2.80 2.31 2.42 2.56 2.49 2.23 2.28 2.85 3.56 3.95 3.76 3.23 2.79 2.50
2.86 2.59 2.27 2.02 1.84 1.74 1.69 1.68 1.82 1.95 2.17 2.25 2.37 2.30 2.56 2.99 2.95 2.86 2.96 2.94 3.04 3.14 3.46 3.25 3.36 3.13 3.02 3.00 3.11 2.89 2.68 2.77 2.79 3.08 3.19 3.02 3.30 3.78 4.30 4.18 3.64 3.18 2.95
3.00 2.83 2.56 2.19 2.16 2.11 2.26 2.36 2.04 2.10 2.19 2.44 2.76 2.73 2.74 3.13 3.14 3.11 3.14 3.25 3.06 3.10 3.30 3.61 3.46 3.53 3.57 3.29 2.94 2.80 2.95 3.00 3.11 3.18 3.29 3.48 3.37 3.51 4.18 4.40 4.03 3.62 3.43
3.48 3.47 3.20 2.79 2.75 2.76 2.68 2.72 2.65 2.37 2.57 2.67 2.85 2.81 2.91 3.18 3.34 3.28 3.09 3.23 3.09 3.05 3.17 3.43 3.47 3.91 3.90 3.79 3.28 3.03 3.07 3.12 3.15 3.24 3.24 3.58 3.49 3.30 3.74 4.15 4.28 4.14 3.93
3.64 3.83 3.77 3.56 3.57 3.55 3.33 3.09 2.89 2.78 2.76 3.04 3.15 3.05 3.10 3.12 3.32 3.29 3.24 3.13 3.11 3.17 3.41 3.49 3.53 3.87 3.87 3.80 3.62 3.33 3.18 2.93 2.83 2.95 2.99 3.18 3.12 3.07 3.33 3.71 4.05 4.22 4.28
3.83 4.07 4.27 4.15 4.17 4.06 3.96 3.72 3.36 3.23 3.26 3.22 3.13 3.18 3.06 3.13 3.20 3.43 3.31 3.08 3.17 3.14 3.39 3.79 3.89 4.09 4.21 4.17 3.87 3.49 3.26 3.12 2.90 2.91 2.75 2.73 3.00 2.66 2.95 3.37 3.64 3.88 4.42
4.15 4.56 4.95 5.01 4.92 4.61 4.29 4.13 4.01 3.86 3.67 3.40 3.33 3.29 3.12 3.04 3.02 3.34 3.31 3.27 3.29 3.50 3.55 3.35 3.98 4.30 4.45 4.35 3.60 3.41 3.01 2.91 2.78 2.60 2.65 2.53 2.72 2.80 2.87 2.85 3.00 3.29 4.20
4.64 5.27 5.39 5.39 5.63 5.39 5.06 4.88 4.69 4.29 3.93 3.63 3.49 3.37 3.07 3.00 2.93 3.31 3.14 3.15 3.28 3.66 3.81 3.90 4.38 4.39 4.23 4.34 3.57 3.18 2.73 2.37 2.34 2.38 2.21 2.24 2.32 2.26 2.54 2.99 3.35 3.08 3.57
4.45 5.09 5.77 5.96 5.81 5.61 5.34 4.89 4.55 4.14 3.91 3.62 3.31 3.08 3.00 2.96 3.09 3.60 3.27 3.58 3.50 3.61 3.70 3.84 4.16 4.15 3.90 4.14 4.16 3.46 2.57 2.04 2.02 1.92 1.93 2.02 1.96 1.98 2.32 2.96 3.28 3.35 3.15
3.86 4.33 4.82 5.17 4.85 4.48 4.31 4.25 4.12 4.04 3.63 3.48 3.40 3.47 3.14 3.15 3.19 3.26 3.55 3.47 3.53 3.68 3.49 3.57 3.94 3.82 3.37 3.75 4.16 4.18 3.28 2.64 2.08 1.55 1.70 1.78 1.89 2.07 2.10 2.20 2.67 3.23 3.17
3.31 3.46 3.64 3.88 3.95 3.96 4.02 4.10 4.25 4.43 4.10 3.96 3.89 3.79 3.32 3.20 3.20 3.30 3.27 3.25 3.42 3.37 3.39 3.38 3.55 3.70 3.54 3.53 3.89 4.26 3.65 2.98 2.35 1.77 1.62 1.58 1.90 2.23 2.19 2.19 2.44 2.88 3.07
2.65 2.90 3.40 3.62 3.73 3.93 4.19 4.21 4.26 4.25 4.19 4.16 4.24 4.15 3.96 3.67 3.44 3.21 3.05 3.04 3.07 2.99 3.15 2.91 3.18 3.41 3.63 3.37 3.45 3.40 3.28 3.22 3.08 2.38 1.84 1.65 1.90 2.13 2.24 2.21 2.33 2.66 2.94
2.22 2.56 3.15 3.71 3.93 4.09 4.30 4.41 4.67 4.49 4.34 4.19 4.24 4.32 4.09 3.80 3.47 3.08 3.06 3.06 3.03 2.92 2.84 2.78 3.03 2.99 3.12 3.18 3.22 3.18 3.23 3.19 2.99 2.74 2.33 2.11 1.98 1.71 1.76 1.92 2.15 2.48 2.74
2.34 2.66 3.11 3.58 3.91 4.07 4.16 4.20 4.31 4.34 4.34 4.10 3.99 3.70 3.27 3.13 3.02 2.78 2.76 2.83 2.75 2.77 2.81 2.77 2.80 2.79 2.86 2.96 2.99 2.99 3.11 3.07 3.04 3.07 2.74 2.48 2.22 1.84 1.69 1.76 1.94 2.18 2.39

GEFSSE_prec_meanprecacc_336.txt.gz
Total_Precipitation_Accumulation
2.97 3.06 3.63 3.49 2.91 2.79 2.87 2.83 2.89 2.78 2.80 2.91 2.89 2.76 2.61 2.55 2.39 2.43 2.42 2.42 2.43 2.51 2.61 2.65 2.60 2.56 2.51 2.38 2.34 2.49 2.53 2.40 2.67 2.73 2.79 2.77 2.71 2.75 2.86 2.91 2.99 2.14 1.88
2.41 2.38 2.90 2.94 2.73 2.77 2.73 2.78 2.83 2.66 2.63 2.76 2.84 2.72 2.57 2.43 2.41 2.39 2.35 2.42 2.49 2.52 2.65 2.63 2.39 2.28 2.13 2.01 2.10 2.37 2.48 2.51 2.78 2.95 3.12 3.11 3.07 3.05 3.09 3.08 3.07 2.03 1.90
1.95 1.91 2.17 2.45 2.37 2.48 2.49 2.41 2.45 2.38 2.39 2.54 2.64 2.69 2.67 2.53 2.48 2.40 2.30 2.46 2.56 2.46 2.55 2.43 2.19 2.04 1.88 1.77 1.89 2.32 2.50 2.73 3.20 3.40 3.73 3.30 2.84 3.23 3.17 3.07 2.75 2.02 1.90
1.66 1.70 1.76 2.18 2.20 2.07 1.98 2.05 2.26 2.19 2.14 2.26 2.48 2.69 2.80 2.79 2.66 2.56 2.47 2.59 2.57 2.43 2.55 2.36 2.09 1.82 1.67 1.67 1.88 2.20 2.42 2.78 3.28 3.80 4.04 3.13 2.34 2.68 2.74 2.60 2.49 2.10 1.91
1.38 1.50 1.74 1.92 1.92 1.80 1.73 1.82 2.03 1.95 1.99 2.07 2.19 2.47 2.67 2.77 2.90 2.84 2.62 2.49 2.37 2.39 2.41 2.25 1.97 1.70 1.53 1.58 1.85 2.07 2.24 2.75 3.39 3.58 3.14 3.00 2.72 2.59 2.38 2.31 2.33 2.09 1.83
1.21 1.35 1.56 1.73 1.66 1.54 1.55 1.70 1.86 1.87 1.91 1.94 1.96 2.28 2.46 2.48 2.56 2.61 2.53 2.34 2.26 2.21 2.19 2.26 1.92 1.69 1.59 1.65 1.86 2.02 2.22 2.72 3.12 2.73 2.40 2.52 2.29 2.34 2.30 2.37 2.40 2.23 1.89
1.19 1.35 1.45 1.61 1.57 1.54 1.59 1.60 1.70 1.87 1.85 1.82 1.92 2.21 2.36 2.39 2.51 2.47 2.33 2.11 1.97 2.05 2.06 2.11 1.93 1.71 1.60 1.66 1.72 1.88 2.24 2.59 2.47 2.17 2.22 2.44 1.97 1.88 2.22 2.51 2.76 2.57 2.15
1.04 1.24 1.34 1.49 1.54 1.54 1.53 1.52 1.58 1.61 1.63 1.72 1.88 2.09 2.11 2.15 2.27 2.23 2.16 2.06 1.81 1.91 1.90 1.80 1.91 1.73 1.65 1.60 1.58 1.62 1.89 2.13 1.88 1.79 2.01 2.15 1.70 1.86 2.31 2.67 3.02 2.89 2.49
0.99 1.11 1.35 1.48 1.53 1.53 1.51 1.47 1.57 1.64 1.56 1.59 1.73 1.91 2.05 2.03 1.97 1.92 1.99 2.00 1.79 1.71 1.63 1.60 1.74 1.81 1.68 1.58 1.49 1.55 1.77 2.12 1.96 1.88 1.73 1.83 1.71 1.97 2.49 2.74 2.92 2.85 2.61
1.38 1.30 1.29 1.31 1.41 1.44 1.38 1.50 1.64 1.69 1.59 1.58 1.71 1.88 2.05 1.97 1.89 1.81 1.68 1.82 1.80 1.66 1.54 1.49 1.62 1.75 1.57 1.58 1.59 1.73 1.93 2.04 1.95 1.95 1.89 1.69 1.76 2.14 2.56 2.70 2.87 2.75 2.55
1.96 1.96 1.69 1.46 1.41 1.50 1.36 1.39 1.76 1.91 1.81 1.91 2.09 2.16 2.33 2.34 2.13 2.10 1.99 2.10 1.96 1.88 1.81 1.78 1.76 1.90 1.70 1.54 1.68 1.92 1.93 1.94 2.32 2.39 1.92 1.63 1.92 2.48 2.75 2.81 2.80 2.65 2.53
2.43 2.46 2.10 1.80 1.56 1.41 1.21 1.48 1.90 1.90 2.05 2.23 2.42 2.30 2.61 2.82 2.66 2.14 2.40 2.72 2.61 2.54 2.38 2.33 2.22 2.02 1.95 1.81 2.20 2.50 2.06 2.27 2.63 2.52 2.05 1.96 2.45 2.97 3.33 3.25 2.89 2.56 2.41
2.76 2.63 2.22 1.98 1.79 1.51 1.56 1.54 1.82 2.16 2.45 2.38 2.25 2.26 2.68 2.60 2.39 2.38 2.58 2.76 2.91 2.73 2.60 2.63 2.68 2.41 2.58 2.96 3.10 2.87 2.38 2.49 2.63 2.59 2.30 2.33 2.93 3.63 4.00 3.79 3.27 2.81 2.52
2.90 2.64 2.29 2.04 1.86 1.76 1.70 1.70 1.85 1.99 2.21 2.30 2.44 2.39 2.62 3.05 3.01 2.93 3.03 3.00 3.08 3.18 3.52 3.32 3.42 3.17 3.08 3.06 3.16 2.96 2.73 2.82 2.87 3.14 3.24 3.07 3.36 3.82 4.34 4.23 3.67 3.21 2.98
3.05 2.86 2.57 2.20 2.18 2.13 2.27 2.37 2.07 2.12 2.22 2.48 2.81 2.79 2.82 3.21 3.20 3.16 3.18 3.29 3.10 3.14 3.37 3.68 3.52 3.57 3.63 3.38 3.00 2.84 3.00 3.06 3.17 3.23 3.34 3.54 3.42 3.55 4.22 4.44 4.07 3.66 3.48
3.52 3.49 3.21 2.80 2.76 2.77 2.69 2.73 2.68 2.40 2.59 2.69 2.88 2.84 2.94 3.21 3.37 3.31 3.11 3.25 3.12 3.09 3.25 3.52 3.54 4.00 3.95 3.83 3.34 3.07 3.11 3.16 3.19 3.29 3.28 3.63 3.54 3.34 3.78 4.20 4.34 4.20 4.00
3.66 3.84 3.78 3.57 3.58 3.56 3.34 3.11 2.91 2.79 2.77 3.06 3.18 3.07 3.11 3.14 3.35 3.33 3.26 3.15 3.14 3.21 3.46 3.55 3.60 3.97 3.93 3.85 3.67 3.37 3.22 2.96 2.86 3.00 3.05 3.23 3.16 3.11 3.36 3.75 4.11 4.28 4.35
3.84 4.07 4.27 4.16 4.18 4.07 3.97 3.74 3.37 3.24 3.27 3.23 3.16 3.20 3.08 3.16 3.27 3.48 3.33 3.10 3.20 3.18 3.43 3.83 3.94 4.16 4.27 4.22 3.92 3.54 3.30 3.16 2.93 2.95 2.80 2.78 3.05 2.70 2.98 3.40 3.69 3.93 4.47
4.16 4.56 4.96 5.02 4.92 4.62 4.29 4.14 4.02 3.87 3.68 3.42 3.36 3.30 3.14 3.08 3.08 3.38 3.33 3.29 3.32 3.55 3.60 3.40 4.02 4.35 4.49 4.40 3.67 3.46 3.07 2.97 2.82 2.63 2.70 2.60 2.78 2.85 2.90 2.88 3.04 3.32 4.23
4.64 5.27 5.40 5.39 5.64 5.40 5.06 4.89 4.70 4.31 3.96 3.65 3.51 3.38 3.09 3.02 2.96 3.33 3.16 3.17 3.31 3.70 3.86 3.95 4.42 4.42 4.27 4.39 3.64 3.26 2.80 2.44 2.42 2.46 2.29 2.32 2.42 2.34 2.60 3.05 3.38 3.10 3.61
4.46 5.09 5.78 5.97 5.82 5.61 5.34 4.90 4.56 4.15 3.93 3.64 3.32 3.10 3.03 2.99 3.12 3.62 3.29 3.61 3.53 3.65 3.72 3.88 4.19 4.20 3.95 4.19 4.23 3.54 2.65 2.13 2.12 2.00 1.99 2.12 2.05 2.07 2.42 3.07 3.33 3.38 3.18
3.86 4.34 4.83 5.18 4.86 4.48 4.32 4.27 4.14 4.05 3.65 3.50 3.42 3.50 3.18 3.18 3.21 3.29 3.57 3.50 3.56 3.71 3.51 3.59 3.97 3.86 3.42 3.80 4.23 4.25 3.35 2.70 2.16 1.64 1.80 1.90 2.05 2.23 2.18 2.27 2.72 3.27 3.21
3.32 3.46 3.65 3.89 3.97 3.98 4.04 4.13 4.28 4.45 4.13 3.99 3.92 3.83 3.35 3.23 3.22 3.32 3.29 3.27 3.45 3.40 3.41 3.41 3.58 3.72 3.59 3.57 3.94 4.33 3.72 3.03 2.39 1.83 1.71 1.69 2.02 2.32 2.26 2.28 2.53 2.95 3.13
2.66 2.90 3.41 3.64 3.74 3.94 4.21 4.23 4.28 4.27 4.21 4.18 4.26 4.16 3.97 3.68 3.46 3.25 3.08 3.06 3.10 3.02 3.17 2.93 3.21 3.44 3.66 3.41 3.49 3.47 3.34 3.28 3.14 2.44 1.90 1.76 2.01 2.22 2.30 2.24 2.37 2.70 2.99
2.22 2.56 3.16 3.72 3.94 4.10 4.32 4.42 4.69 4.51 4.37 4.22 4.26 4.34 4.10 3.81 3.48 3.10 3.08 3.08 3.05 2.94 2.85 2.80 3.07 3.03 3.16 3.22 3.27 3.25 3.31 3.25 3.07 2.80 2.39 2.19 2.07 1.81 1.82 1.97 2.20 2.51 2.76
2.34 2.66 3.11 3.60 3.94 4.10 4.19 4.23 4.34 4.37 4.38 4.14 4.00 3.71 3.28 3.14 3.04 2.80 2.77 2.84 2.78 2.79 2.83 2.79 2.83 2.83 2.90 2.99 3.02 3.02 3.16 3.12 3.09 3.12 2.78 2.53 2.30 1.93 1.76 1.81 1.99 2.24 2.43

GEFSSE_prec_meanprecacc_342.txt.gz
Total_Precipitation_Accumulation
3.11 3.22 3.78 3.60 2.99 2.86 2.93 2.89 2.95 2.85 2.87 2.97 2.95 2.83 2.70 2.63 2.45 2.48 2.48 2.49 2.51 2.60 2.74 2.81 2.77 2.67 2.59 2.45 2.41 2.56 2.59 2.46 2.73 2.81 2.88 2.86 2.80 2.86 2.97 3.03 3.07 2.19 1.94
2.54 2.53 3.05 3.04 2.80 2.83 2.78 2.83 2.87 2.72 2.70 2.84 2.90 2.78 2.62 2.49 2.47 2.44 2.41 2.50 2.56 2.59 2.76 2.78 2.49 2.34 2.20 2.08 2.17 2.44 2.55 2.56 2.84 3.05 3.20 3.19 3.15 3.15 3.20 3.20 3.18 2.09 1.94
2.05 2.02 2.28 2.54 2.43 2.54 2.55 2.46 2.50 2.45 2.50 2.64 2.71 2.75 2.72 2.58 2.54 2.46 2.36 2.54 2.64 2.53 2.62 2.49 2.23 2.10 1.95 1.84 1.97 2.40 2.57 2.79 3.27 3.49 3.80 3.35 2.91 3.32 3.28 3.20 2.87 2.11 1.97
1.71 1.76 1.83 2.25 2.25 2.11 2.03 2.10 2.30 2.25 2.22 2.33 2.54 2.76 2.85 2.83 2.71 2.63 2.53 2.68 2.69 2.51 2.60 2.41 2.14 1.88 1.73 1.74 1.98 2.30 2.50 2.84 3.35 3.86 4.09 3.16 2.38 2.77 2.85 2.72 2.62 2.23 2.01
1.46 1.57 1.83 1.99 1.97 1.84 1.78 1.87 2.09 2.00 2.03 2.12 2.25 2.55 2.75 2.83 2.96 2.91 2.70 2.66 2.50 2.43 2.44 2.29 2.02 1.76 1.60 1.66 1.95 2.16 2.31 2.83 3.47 3.65 3.19 3.04 2.77 2.64 2.45 2.40 2.43 2.19 1.92
1.29 1.40 1.63 1.80 1.72 1.61 1.61 1.76 1.92 1.91 1.96 2.00 2.03 2.37 2.55 2.54 2.61 2.67 2.63 2.46 2.31 2.26 2.24 2.32 1.98 1.75 1.67 1.75 1.97 2.08 2.28 2.80 3.19 2.81 2.45 2.56 2.32 2.39 2.36 2.45 2.49 2.31 1.96
1.28 1.43 1.52 1.68 1.62 1.59 1.64 1.66 1.76 1.92 1.91 1.88 1.99 2.30 2.44 2.44 2.54 2.51 2.38 2.14 2.00 2.10 2.12 2.17 1.99 1.76 1.66 1.75 1.83 1.94 2.31 2.71 2.57 2.25 2.27 2.47 2.00 1.91 2.27 2.59 2.83 2.65 2.21
1.11 1.30 1.41 1.56 1.60 1.59 1.58 1.57 1.64 1.65 1.68 1.78 1.96 2.18 2.18 2.19 2.30 2.27 2.20 2.10 1.86 1.97 1.96 1.86 1.96 1.78 1.71 1.70 1.69 1.71 1.99 2.33 2.06 1.87 2.05 2.19 1.73 1.89 2.36 2.73 3.08 2.95 2.54
1.04 1.20 1.42 1.54 1.61 1.60 1.58 1.52 1.62 1.68 1.61 1.65 1.80 1.99 2.10 2.07 2.01 1.95 2.03 2.05 1.85 1.78 1.70 1.66 1.80 1.86 1.75 1.66 1.58 1.66 1.90 2.28 2.13 1.94 1.75 1.85 1.73 2.01 2.54 2.80 2.98 2.91 2.66
1.44 1.44 1.40 1.34 1.44 1.50 1.45 1.57 1.70 1.75 1.66 1.65 1.79 1.96 2.10 2.01 1.92 1.85 1.73 1.88 1.86 1.73 1.60 1.54 1.67 1.78 1.61 1.62 1.64 1.82 2.06 2.14 2.02 1.98 1.91 1.71 1.78 2.18 2.65 2.77 2.94 2.81 2.61
2.01 2.03 1.76 1.52 1.45 1.54 1.41 1.44 1.83 2.00 1.90 1.98 2.17 2.23 2.38 2.38 2.16 2.14 2.02 2.16 2.04 1.97 1.89 1.83 1.80 1.94 1.74 1.58 1.75 2.01 2.01 1.98 2.35 2.41 1.94 1.65 1.95 2.54 2.83 2.89 2.88 2.72 2.61
2.45 2.48 2.13 1.84 1.58 1.43 1.24 1.53 1.95 1.95 2.11 2.29 2.47 2.37 2.64 2.85 2.69 2.15 2.42 2.79 2.72 2.67 2.49 2.42 2.30 2.07 1.98 1.83 2.23 2.55 2.10 2.31 2.66 2.55 2.08 1.99 2.49 3.02 3.39 3.33 2.97 2.64 2.48
2.78 2.65 2.24 1.99 1.80 1.53 1.60 1.59 1.85 2.19 2.50 2.42 2.28 2.31 2.69 2.61 2.41 2.40 2.62 2.81 2.96 2.81 2.66 2.67 2.73 2.44 2.59 2.98 3.12 2.90 2.42 2.53 2.67 2.63 2.33 2.36 2.98 3.68 4.05 3.85 3.33 2.89 2.60
2.91 2.65 2.31 2.05 1.88 1.78 1.74 1.73 1.87 2.01 2.24 2.33 2.45 2.41 2.64 3.07 3.03 2.96 3.09 3.06 3.13 3.23 3.58 3.37 3.44 3.18 3.10 3.10 3.20 3.00 2.76 2.85 2.90 3.18 3.27 3.12 3.41 3.87 4.39 4.29 3.74 3.29 3.07
3.07 2.87 2.58 2.22 2.20 2.15 2.30 2.41 2.09 2.14 2.24 2.50 2.82 2.80 2.84 3.24 3.23 3.19 3.22 3.34 3.13 3.17 3.43 3.74 3.56 3.60 3.67 3.43 3.03 2.88 3.02 3.08 3.18 3.25 3.36 3.58 3.48 3.62 4.29 4.50 4.14 3.74 3.56
3.56 3.52 3.22 2.81 2.78 2.79 2.71 2.75 2.69 2.41 2.60 2.70 2.89 2.85 2.96 3.23 3.40 3.35 3.16 3.29 3.15 3.12 3.29 3.55 3.58 4.03 3.99 3.87 3.36 3.09 3.13 3.18 3.21 3.30 3.30 3.66 3.60 3.42 3.85 4.28 4.43 4.30 4.08
3.69 3.86 3.79 3.58 3.60 3.58 3.36 3.14 2.93 2.81 2.78 3.06 3.19 3.08 3.13 3.17 3.39 3.37 3.31 3.19 3.18 3.25 3.49 3.58 3.65 4.00 3.94 3.86 3.68 3.39 3.23 2.97 2.88 3.01 3.06 3.25 3.21 3.17 3.41 3.82 4.20 4.37 4.45
3.85 4.09 4.29 4.17 4.19 4.09 3.99 3.76 3.41 3.27 3.28 3.25 3.18 3.22 3.11 3.20 3.31 3.52 3.38 3.14 3.24 3.21 3.44 3.84 3.97 4.18 4.28 4.23 3.93 3.56 3.33 3.18 2.96 2.98 2.83 2.80 3.07 2.73 3.02 3.47 3.79 4.01 4.55
4.17 4.57 4.97 5.03 4.93 4.63 4.32 4.16 4.05 3.90 3.70 3.44 3.38 3.32 3.18 3.12 3.12 3.41 3.38 3.33 3.35 3.57 3.61 3.41 4.03 4.37 4.50 4.41 3.68 3.49 3.10 3.00 2.84 2.65 2.71 2.61 2.80 2.87 2.93 2.92 3.10 3.38 4.30
4.65 5.28 5.40 5.40 5.65 5.42 5.09 4.91 4.73 4.33 3.98 3.67 3.53 3.40 3.12 3.06 3.01 3.37 3.19 3.20 3.33 3.72 3.88 3.97 4.43 4.43 4.28 4.40 3.65 3.28 2.83 2.47 2.44 2.48 2.31 2.34 2.44 2.36 2.62 3.07 3.42 3.16 3.67
4.47 5.10 5.78 5.97 5.82 5.62 5.36 4.92 4.58 4.17 3.94 3.65 3.34 3.13 3.07 3.03 3.17 3.67 3.32 3.63 3.55 3.66 3.75 3.90 4.21 4.21 3.96 4.21 4.25 3.56 2.68 2.16 2.13 2.02 2.01 2.15 2.08 2.09 2.43 3.08 3.36 3.41 3.21
3.87 4.34 4.84 5.19 4.87 4.49 4.32 4.28 4.16 4.07 3.67 3.52 3.44 3.52 3.22 3.22 3.26 3.34 3.61 3.52 3.58 3.73 3.53 3.61 3.99 3.87 3.43 3.81 4.25 4.28 3.39 2.74 2.18 1.66 1.82 1.92 2.06 2.25 2.20 2.29 2.74 3.29 3.25
3.32 3.47 3.66 3.90 3.97 3.98 4.05 4.14 4.29 4.46 4.14 4.00 3.94 3.86 3.38 3.27 3.26 3.37 3.34 3.30 3.47 3.42 3.43 3.42 3.60 3.74 3.61 3.58 3.95 4.35 3.74 3.06 2.42 1.85 1.73 1.72 2.05 2.35 2.29 2.30 2.54 2.98 3.16
2.67 2.91 3.41 3.64 3.74 3.94 4.22 4.25 4.30 4.28 4.22 4.20 4.28 4.19 4.00 3.70 3.49 3.29 3.13 3.09 3.12 3.03 3.18 2.95 3.23 3.47 3.69 3.42 3.51 3.49 3.36 3.30 3.16 2.46 1.92 1.80 2.05 2.26 2.34 2.29 2.41 2.75 3.03
2.24 2.56 3.16 3.72 3.94 4.11 4.33 4.43 4.70 4.53 4.38 4.24 4.29 4.36 4.13 3.82 3.49 3.13 3.13 3.12 3.07 2.95 2.86 2.82 3.08 3.05 3.18 3.24 3.28 3.26 3.32 3.26 3.09 2.82 2.40 2.21 2.11 1.84 1.86 2.00 2.24 2.56 2.81
2.35 2.66 3.12 3.61 3.94 4.10 4.19 4.23 4.35 4.38 4.40 4.16 4.02 3.72 3.32 3.17 3.06 2.82 2.84 2.90 2.80 2.80 2.84 2.80 2.84 2.85 2.92 3.02 3.04 3.04 3.17 3.13 3.11 3.14 2.80 2.54 2.32 1.95 1.79 1.85 2.02 2.28 2.47

GEFSSE_prec_meanprecacc_348.txt.gz
Total_Precipitation_Accumulation
3.24 3.40 3.95 3.77 3.13 2.95 3.01 2.97 3.03 2.96 2.99 3.08 3.05 2.94 2.83 2.75 2.54 2.55 2.55 2.56 2.58 2.69 2.82 2.91 2.93 2.86 2.73 2.57 2.52 2.66 2.67 2.53 2.80 2.91 2.99 2.98 2.91 2.97 3.07 3.13 3.17 2.27 2.02
2.72 2.71 3.21 3.17 2.90 2.92 2.85 2.90 2.95 2.83 2.81 2.93 3.00 2.88 2.74 2.61 2.57 2.51 2.48 2.58 2.65 2.69 2.87 2.88 2.61 2.45 2.29 2.17 2.26 2.53 2.62 2.62 2.91 3.13 3.29 3.26 3.23 3.22 3.27 3.27 3.26 2.17 2.03
2.18 2.14 2.40 2.67 2.53 2.61 2.62 2.53 2.56 2.53 2.61 2.74 2.81 2.87 2.83 2.68 2.64 2.56 2.44 2.62 2.75 2.65 2.73 2.57 2.30 2.17 2.02 1.92 2.04 2.49 2.66 2.87 3.35 3.57 3.86 3.41 2.96 3.37 3.32 3.24 2.92 2.18 2.06
1.82 1.87 1.92 2.35 2.34 2.19 2.12 2.18 2.37 2.36 2.31 2.41 2.64 2.87 2.94 2.90 2.80 2.70 2.61 2.76 2.79 2.62 2.68 2.49 2.20 1.94 1.80 1.82 2.05 2.36 2.58 2.93 3.44 3.93 4.13 3.18 2.40 2.81 2.89 2.77 2.67 2.29 2.09
1.55 1.67 1.93 2.08 2.06 1.93 1.87 1.96 2.20 2.11 2.10 2.19 2.34 2.64 2.84 2.91 3.04 3.00 2.81 2.77 2.61 2.53 2.53 2.38 2.07 1.82 1.67 1.73 2.02 2.21 2.37 2.89 3.54 3.71 3.25 3.08 2.81 2.68 2.49 2.45 2.48 2.24 1.99
1.35 1.48 1.72 1.88 1.81 1.70 1.69 1.85 2.04 1.99 2.03 2.06 2.11 2.46 2.63 2.63 2.71 2.76 2.78 2.61 2.42 2.33 2.31 2.40 2.05 1.83 1.74 1.82 2.05 2.15 2.35 2.85 3.23 2.86 2.49 2.60 2.38 2.45 2.42 2.51 2.53 2.35 2.01
1.32 1.50 1.60 1.75 1.71 1.68 1.73 1.75 1.88 1.99 1.98 1.94 2.07 2.39 2.53 2.53 2.63 2.61 2.57 2.29 2.08 2.16 2.18 2.24 2.07 1.84 1.77 1.88 1.94 2.02 2.36 2.76 2.61 2.29 2.30 2.49 2.03 1.99 2.35 2.64 2.87 2.69 2.26
1.15 1.37 1.49 1.64 1.67 1.65 1.66 1.65 1.74 1.71 1.74 1.86 2.06 2.27 2.25 2.25 2.37 2.35 2.30 2.19 1.94 2.03 2.02 1.94 2.04 1.89 1.87 1.85 1.78 1.77 2.05 2.38 2.11 1.91 2.09 2.21 1.76 1.93 2.43 2.81 3.15 3.00 2.59
1.07 1.25 1.48 1.61 1.68 1.67 1.67 1.62 1.73 1.79 1.70 1.75 1.91 2.08 2.17 2.15 2.09 2.02 2.09 2.12 1.93 1.87 1.77 1.74 1.89 1.98 1.90 1.78 1.64 1.70 1.95 2.34 2.22 2.01 1.80 1.89 1.76 2.05 2.60 2.88 3.06 2.98 2.74
1.47 1.47 1.43 1.38 1.49 1.55 1.53 1.66 1.80 1.86 1.79 1.78 1.90 2.05 2.18 2.09 1.99 1.90 1.78 1.95 1.95 1.81 1.67 1.60 1.73 1.85 1.69 1.72 1.72 1.89 2.14 2.26 2.13 2.06 1.97 1.74 1.81 2.21 2.69 2.82 2.99 2.88 2.69
2.03 2.06 1.78 1.56 1.48 1.56 1.45 1.50 1.93 2.14 2.01 2.09 2.26 2.30 2.44 2.44 2.22 2.20 2.08 2.24 2.12 2.04 1.95 1.89 1.86 2.00 1.79 1.65 1.83 2.11 2.13 2.11 2.43 2.48 2.00 1.68 1.98 2.57 2.87 2.94 2.93 2.78 2.67
2.48 2.51 2.15 1.85 1.60 1.45 1.27 1.59 2.07 2.08 2.21 2.37 2.54 2.43 2.71 2.91 2.77 2.22 2.50 2.87 2.82 2.75 2.54 2.46 2.34 2.10 2.01 1.87 2.28 2.62 2.16 2.36 2.72 2.61 2.13 2.01 2.51 3.04 3.43 3.39 3.02 2.69 2.54
2.80 2.68 2.26 2.02 1.83 1.56 1.63 1.64 1.92 2.27 2.58 2.49 2.34 2.35 2.74 2.66 2.46 2.47 2.69 2.87 3.03 2.86 2.70 2.71 2.77 2.47 2.63 3.03 3.17 2.94 2.44 2.56 2.71 2.67 2.37 2.38 3.00 3.71 4.10 3.92 3.39 2.96 2.69
2.96 2.69 2.35 2.09 1.91 1.82 1.76 1.76 1.91 2.07 2.32 2.41 2.51 2.46 2.70 3.13 3.10 3.03 3.15 3.13 3.19 3.28 3.62 3.41 3.50 3.22 3.14 3.14 3.25 3.03 2.78 2.88 2.94 3.22 3.31 3.14 3.43 3.91 4.45 4.35 3.80 3.35 3.16
3.11 2.91 2.62 2.25 2.24 2.18 2.33 2.44 2.11 2.18 2.30 2.56 2.87 2.85 2.89 3.31 3.32 3.28 3.31 3.43 3.20 3.22 3.48 3.80 3.62 3.64 3.72 3.47 3.07 2.91 3.06 3.12 3.22 3.29 3.40 3.61 3.51 3.64 4.33 4.55 4.19 3.80 3.64
3.59 3.55 3.25 2.84 2.82 2.84 2.75 2.79 2.72 2.43 2.64 2.73 2.93 2.90 3.01 3.30 3.49 3.44 3.23 3.38 3.25 3.19 3.34 3.60 3.62 4.07 4.03 3.90 3.39 3.12 3.15 3.22 3.25 3.35 3.34 3.70 3.63 3.45 3.89 4.32 4.48 4.36 4.15
3.74 3.88 3.80 3.62 3.64 3.62 3.38 3.16 2.96 2.83 2.80 3.08 3.23 3.13 3.18 3.22 3.47 3.45 3.38 3.26 3.27 3.31 3.54 3.61 3.68 4.03 3.97 3.89 3.72 3.41 3.25 2.99 2.91 3.04 3.09 3.29 3.25 3.20 3.45 3.87 4.25 4.44 4.52
3.88 4.12 4.30 4.18 4.21 4.12 4.02 3.79 3.45 3.31 3.31 3.28 3.21 3.25 3.15 3.24 3.36 3.59 3.45 3.20 3.29 3.25 3.46 3.87 4.00 4.21 4.31 4.25 3.96 3.59 3.36 3.22 2.99 3.00 2.86 2.82 3.10 2.75 3.06 3.51 3.83 4.08 4.64
4.19 4.60 4.99 5.05 4.95 4.67 4.36 4.20 4.10 3.95 3.74 3.48 3.41 3.36 3.21 3.16 3.15 3.46 3.43 3.38 3.39 3.60 3.63 3.43 4.05 4.40 4.54 4.44 3.70 3.52 3.13 3.04 2.89 2.68 2.75 2.65 2.84 2.92 2.98 2.96 3.14 3.43 4.36
4.67 5.30 5.42 5.42 5.67 5.45 5.13 4.95 4.78 4.40 4.03 3.70 3.56 3.44 3.15 3.09 3.03 3.40 3.24 3.26 3.37 3.75 3.90 4.00 4.46 4.47 4.31 4.43 3.67 3.30 2.85 2.49 2.48 2.52 2.34 2.37 2.47 2.40 2.68 3.13 3.50 3.22 3.71
4.49 5.12 5.80 6.00 5.85 5.65 5.40 4.97 4.63 4.22 3.98 3.68 3.37 3.15 3.09 3.05 3.19 3.72 3.36 3.68 3.59 3.70 3.79 3.94 4.24 4.25 3.99 4.23 4.28 3.60 2.71 2.18 2.16 2.05 2.04 2.18 2.10 2.12 2.47 3.13 3.42 3.48 3.27
3.89 4.35 4.85 5.21 4.89 4.52 4.36 4.32 4.20 4.13 3.72 3.56 3.47 3.55 3.24 3.25 3.29 3.39 3.66 3.57 3.62 3.79 3.58 3.66 4.04 3.92 3.46 3.84 4.29 4.34 3.43 2.77 2.21 1.68 1.84 1.93 2.08 2.26 2.22 2.32 2.78 3.35 3.31
3.33 3.48 3.67 3.92 3.99 4.00 4.07 4.17 4.34 4.51 4.18 4.03 3.97 3.88 3.40 3.28 3.29 3.41 3.39 3.37 3.52 3.47 3.47 3.47 3.65 3.81 3.67 3.62 3.98 4.39 3.79 3.11 2.46 1.88 1.76 1.75 2.07 2.37 2.31 2.32 2.57 3.03 3.22
2.68 2.92 3.43 3.66 3.75 3.96 4.24 4.29 4.34 4.32 4.26 4.23 4.30 4.21 4.02 3.72 3.51 3.32 3.18 3.17 3.18 3.06 3.22 2.99 3.27 3.54 3.75 3.46 3.55 3.52 3.39 3.34 3.21 2.50 1.97 1.84 2.08 2.28 2.36 2.31 2.43 2.78 3.07
2.24 2.57 3.17 3.74 3.95 4.12 4.34 4.46 4.73 4.56 4.41 4.27 4.30 4.37 4.17 3.86 3.52 3.15 3.15 3.17 3.13 2.99 2.91 2.86 3.12 3.09 3.23 3.28 3.33 3.30 3.36 3.30 3.12 2.86 2.44 2.25 2.14 1.87 1.87 2.02 2.26 2.58 2.83
2.35 2.66 3.12 3.62 3.96 4.11 4.20 4.25 4.37 4.41 4.43 4.20 4.05 3.76 3.37 3.23 3.09 2.84 2.87 2.94 2.85 2.85 2.88 2.83 2.87 2.88 2.97 3.06 3.08 3.07 3.21 3.17 3.15 3.19 2.84 2.58 2.35 1.98 1.80 1.86 2.03 2.30 2.49

GEFSSE_prec_meanprecacc_354.txt.gz
Total_Precipitation_Accumulation
3.37 3.51 4.07 3.91 3.22 3.02 3.09 3.06 3.14 3.07 3.08 3.19 3.15 3.04 2.92 2.80 2.57 2.59 2.57 2.59 2.61 2.71 2.86 2.97 3.02 3.02 2.87 2.71 2.66 2.76 2.74 2.59 2.88 2.98 3.04 3.05 2.98 3.02 3.12 3.19 3.28 2.39 2.15
2.84 2.83 3.32 3.28 2.99 3.00 2.94 2.99 3.04 2.91 2.89 3.02 3.10 2.99 2.83 2.67 2.62 2.55 2.52 2.61 2.68 2.73 2.91 2.94 2.75 2.61 2.41 2.28 2.36 2.63 2.72 2.70 3.00 3.21 3.36 3.34 3.30 3.27 3.31 3.31 3.34 2.24 2.09
2.28 2.25 2.49 2.75 2.61 2.68 2.69 2.61 2.63 2.60 2.68 2.80 2.90 2.96 2.90 2.75 2.72 2.62 2.49 2.66 2.80 2.72 2.79 2.68 2.47 2.29 2.12 2.00 2.12 2.57 2.73 2.95 3.45 3.67 3.99 3.53 3.04 3.42 3.35 3.27 2.97 2.24 2.11
1.89 1.95 1.98 2.41 2.39 2.24 2.18 2.24 2.44 2.44 2.38 2.47 2.70 2.95 3.02 2.98 2.86 2.76 2.65 2.80 2.83 2.68 2.75 2.60 2.31 2.03 1.89 1.89 2.12 2.42 2.65 3.01 3.51 4.01 4.24 3.27 2.47 2.86 2.93 2.80 2.71 2.34 2.13
1.62 1.73 1.97 2.13 2.10 1.98 1.93 2.01 2.29 2.20 2.16 2.26 2.40 2.72 2.92 2.99 3.11 3.07 2.86 2.83 2.65 2.57 2.59 2.45 2.13 1.88 1.74 1.79 2.07 2.26 2.43 2.95 3.57 3.75 3.30 3.14 2.88 2.74 2.54 2.48 2.51 2.28 2.03
1.41 1.53 1.76 1.93 1.85 1.75 1.76 1.93 2.17 2.08 2.10 2.14 2.17 2.52 2.70 2.70 2.78 2.82 2.84 2.67 2.47 2.37 2.37 2.48 2.10 1.88 1.79 1.87 2.10 2.19 2.38 2.88 3.28 2.92 2.54 2.65 2.44 2.51 2.47 2.55 2.56 2.38 2.05
1.38 1.56 1.65 1.79 1.76 1.73 1.79 1.84 2.01 2.07 2.04 2.01 2.14 2.46 2.59 2.58 2.69 2.68 2.62 2.34 2.14 2.23 2.27 2.32 2.14 1.90 1.82 1.95 2.00 2.07 2.40 2.78 2.66 2.35 2.35 2.54 2.07 2.02 2.39 2.68 2.91 2.72 2.30
1.19 1.43 1.54 1.69 1.72 1.70 1.70 1.72 1.86 1.79 1.80 1.92 2.12 2.34 2.30 2.28 2.40 2.40 2.38 2.28 2.02 2.11 2.08 2.00 2.11 1.97 1.97 1.97 1.85 1.81 2.08 2.41 2.14 1.95 2.13 2.25 1.78 1.95 2.47 2.84 3.18 3.04 2.64
1.11 1.31 1.55 1.67 1.72 1.70 1.70 1.68 1.81 1.85 1.76 1.82 1.99 2.14 2.21 2.18 2.13 2.07 2.16 2.21 2.00 1.92 1.83 1.82 1.97 2.09 2.08 1.91 1.69 1.72 1.97 2.38 2.25 2.03 1.83 1.91 1.77 2.06 2.63 2.92 3.10 3.01 2.78
1.50 1.50 1.48 1.44 1.54 1.61 1.60 1.75 1.87 1.94 1.86 1.85 1.97 2.11 2.23 2.14 2.06 1.96 1.82 1.99 1.99 1.85 1.72 1.67 1.80 1.95 1.85 1.80 1.75 1.91 2.16 2.30 2.17 2.09 2.00 1.76 1.82 2.23 2.72 2.86 3.04 2.92 2.74
2.07 2.09 1.82 1.60 1.53 1.63 1.50 1.60 2.07 2.27 2.14 2.18 2.33 2.35 2.48 2.50 2.30 2.25 2.11 2.26 2.15 2.06 1.97 1.92 1.89 2.05 1.89 1.73 1.89 2.16 2.19 2.18 2.50 2.54 2.03 1.69 1.99 2.58 2.89 2.96 2.96 2.82 2.74
2.55 2.57 2.19 1.88 1.63 1.48 1.31 1.74 2.25 2.18 2.30 2.46 2.60 2.47 2.75 2.97 2.83 2.26 2.54 2.91 2.85 2.77 2.56 2.48 2.36 2.14 2.11 2.01 2.44 2.77 2.29 2.47 2.81 2.66 2.16 2.03 2.53 3.07 3.46 3.40 3.04 2.72 2.59
2.88 2.76 2.31 2.05 1.86 1.59 1.68 1.76 2.03 2.35 2.66 2.58 2.40 2.39 2.80 2.71 2.50 2.51 2.74 2.92 3.07 2.90 2.74 2.74 2.81 2.52 2.71 3.15 3.30 3.07 2.56 2.66 2.79 2.71 2.40 2.40 3.02 3.74 4.13 3.94 3.41 2.98 2.73
3.01 2.75 2.42 2.17 1.98 1.85 1.80 1.82 1.98 2.14 2.39 2.48 2.56 2.50 2.76 3.21 3.16 3.08 3.20 3.17 3.23 3.35 3.69 3.46 3.56 3.28 3.19 3.17 3.30 3.09 2.86 2.96 3.00 3.28 3.36 3.16 3.46 3.94 4.48 4.39 3.83 3.38 3.20
3.16 2.94 2.66 2.32 2.32 2.23 2.38 2.48 2.16 2.23 2.36 2.62 2.91 2.88 2.94 3.38 3.39 3.35 3.37 3.47 3.24 3.28 3.55 3.85 3.65 3.68 3.76 3.51 3.10 2.96 3.12 3.17 3.28 3.34 3.46 3.64 3.54 3.68 4.36 4.58 4.22 3.83 3.67
3.63 3.58 3.30 2.89 2.87 2.89 2.79 2.82 2.75 2.47 2.68 2.79 2.97 2.92 3.04 3.35 3.56 3.52 3.30 3.44 3.30 3.24 3.39 3.64 3.64 4.11 4.07 3.95 3.44 3.16 3.19 3.26 3.32 3.41 3.40 3.76 3.68 3.49 3.91 4.35 4.50 4.38 4.18
3.76 3.90 3.82 3.65 3.69 3.66 3.43 3.19 2.99 2.85 2.83 3.13 3.28 3.16 3.21 3.26 3.54 3.53 3.47 3.33 3.33 3.37 3.59 3.66 3.72 4.08 4.04 3.95 3.76 3.46 3.30 3.04 2.98 3.15 3.15 3.36 3.32 3.24 3.48 3.89 4.27 4.46 4.55
3.89 4.14 4.32 4.20 4.24 4.15 4.06 3.85 3.49 3.35 3.35 3.32 3.25 3.29 3.18 3.28 3.41 3.68 3.52 3.25 3.35 3.33 3.53 3.93 4.05 4.26 4.37 4.32 4.03 3.65 3.42 3.28 3.06 3.07 2.93 2.89 3.18 2.80 3.08 3.53 3.86 4.11 4.67
4.20 4.61 5.01 5.07 4.98 4.70 4.41 4.26 4.14 4.00 3.80 3.51 3.45 3.38 3.23 3.19 3.19 3.52 3.48 3.42 3.44 3.66 3.70 3.47 4.10 4.44 4.59 4.51 3.76 3.59 3.19 3.10 2.98 2.75 2.83 2.71 2.93 3.00 3.05 3.01 3.17 3.46 4.40
4.68 5.31 5.44 5.45 5.70 5.49 5.17 5.01 4.82 4.45 4.08 3.74 3.58 3.46 3.18 3.12 3.07 3.45 3.27 3.29 3.40 3.80 3.97 4.06 4.51 4.51 4.36 4.48 3.72 3.36 2.90 2.55 2.54 2.59 2.40 2.43 2.55 2.48 2.76 3.20 3.56 3.26 3.75
4.51 5.15 5.84 6.05 5.90 5.71 5.47 5.04 4.68 4.27 4.04 3.73 3.38 3.16 3.11 3.08 3.22 3.76 3.40 3.73 3.64 3.74 3.83 3.98 4.28 4.29 4.04 4.27 4.33 3.67 2.77 2.22 2.21 2.09 2.08 2.24 2.17 2.18 2.55 3.20 3.48 3.55 3.32
3.90 4.39 4.89 5.25 4.94 4.58 4.42 4.38 4.27 4.19 3.78 3.61 3.50 3.56 3.25 3.26 3.31 3.42 3.70 3.61 3.66 3.83 3.62 3.69 4.08 3.97 3.52 3.88 4.34 4.42 3.52 2.86 2.28 1.72 1.88 1.98 2.13 2.31 2.26 2.36 2.83 3.41 3.38
3.34 3.49 3.69 3.95 4.01 4.04 4.11 4.22 4.40 4.59 4.25 4.07 4.00 3.91 3.42 3.31 3.32 3.44 3.42 3.40 3.56 3.51 3.52 3.53 3.71 3.87 3.74 3.68 4.04 4.46 3.89 3.21 2.55 1.95 1.81 1.78 2.10 2.40 2.35 2.36 2.61 3.07 3.27
2.68 2.93 3.44 3.68 3.79 4.00 4.28 4.35 4.41 4.40 4.34 4.29 4.35 4.27 4.07 3.77 3.56 3.36 3.21 3.20 3.23 3.10 3.28 3.05 3.35 3.61 3.83 3.53 3.61 3.58 3.44 3.40 3.30 2.58 2.02 1.87 2.11 2.30 2.39 2.33 2.46 2.83 3.11
2.24 2.57 3.18 3.76 3.99 4.17 4.40 4.53 4.79 4.62 4.47 4.32 4.36 4.43 4.22 3.90 3.55 3.18 3.19 3.20 3.19 3.04 2.95 2.91 3.19 3.16 3.29 3.34 3.39 3.36 3.41 3.37 3.20 2.96 2.53 2.32 2.18 1.90 1.89 2.04 2.29 2.61 2.85
2.35 2.67 3.13 3.64 4.00 4.16 4.25 4.30 4.42 4.46 4.48 4.25 4.10 3.80 3.42 3.27 3.13 2.88 2.90 2.98 2.90 2.88 2.93 2.88 2.93 2.95 3.04 3.14 3.15 3.12 3.28 3.24 3.23 3.28 2.90 2.64 2.39 2.01 1.83 1.88 2.06 2.32 2.52